Weather History for Olivia, MN

Change the Weather History Date:

Friday, March 1, 2013

  Actual Average (KRWF) Record (KRWF)
Temperature  
Mean Temperature 17 °F -  
Max Temperature 26 °F 33 °F 66 °F (1992)
Min Temperature 8 °F 16 °F -25 °F (1962)
Degree Days  
Heating Degree Days 48    
Moisture  
Dew Point 14 °F    
Average Humidity 79    
Maximum Humidity 93    
Minimum Humidity 69    
Precipitation  
Precipitation 0.00 in - - ()
Sea Level Pressure  
Sea Level Pressure 30.31 in    
Wind  
Wind Speed 8 mph (North)    
Max Wind Speed 10 mph    
Max Gust Speed -    
Visibility 10 miles    
Events      
Averages and records for this station are not official NWS values.
T = Trace of Precipitation, MM = Missing Value Source: NWS Daily Summary

Daily Weather History Graph

Daily Weather History Graph

Search for Another Location

Airport:

Trip Planner

Search our weather history database for the weather conditions in past years. The results will help you decide how hot, cold, wet, or windy it might be!

Date:

Astronomy

Mar. 01, 2013 Rise Set
Actual Time 6:57 AM CST 6:08 PM CST
Civil Twilight 6:27 AM CST 6:37 PM CST
Nautical Twilight 5:54 AM CST 7:11 PM CST
Astronomical Twilight 5:20 AM CST 7:45 PM CST
Moon 10:56 PM CST 8:32 AM CST
Length of Visible Light 12h 09m
Length of Day
11h 10m
Waning Gibbous, 83% of the Moon is Illuminated
Mar 1
Waning Gibbous
Mar 4
Last Quarter
Mar 11
New
Mar 19
First Quarter
Mar 27
Full

Hourly Weather History & Observations

Time (CST) Temp. Windchill Dew Point Humidity Pressure Visibility Wind Dir Wind Speed Gust Speed Precip Events Conditions
12:10 AM 21.2 °F 11.7 °F 14.0 °F 74% 30.21 in 10.0 mi North 8.1 mph - N/A   Clear
12:31 AM 19.4 °F 10.4 °F 14.0 °F 80% 30.22 in 10.0 mi North 6.9 mph - N/A   Clear
12:51 AM 17.6 °F 7.3 °F 14.0 °F 86% 30.22 in 10.0 mi North 8.1 mph - N/A   Clear
1:11 AM 17.6 °F 9.3 °F 14.0 °F 86% 30.22 in 10.0 mi North 5.8 mph - N/A   Clear
1:31 AM 17.6 °F 6.4 °F 14.0 °F 86% 30.23 in 10.0 mi North 9.2 mph - N/A   Clear
2:11 AM 12.2 °F 1.7 °F 8.6 °F 85% 30.24 in 10.0 mi NNE 6.9 mph - N/A   Clear
2:31 AM 12.2 °F -1.0 °F 8.6 °F 85% 30.24 in 10.0 mi NNE 10.4 mph - N/A   Clear
2:51 AM 15.8 °F 4.2 °F 10.4 °F 79% 30.24 in 10.0 mi NNE 9.2 mph - N/A   Mostly Cloudy
3:11 AM 17.6 °F 7.3 °F 12.2 °F 79% 30.24 in 10.0 mi NNE 8.1 mph - N/A   Overcast
3:31 AM 19.4 °F 8.6 °F 14.0 °F 80% 30.24 in 10.0 mi North 9.2 mph - N/A   Overcast
4:10 AM 21.2 °F 10.9 °F 15.8 °F 80% 30.25 in 10.0 mi North 9.2 mph - N/A   Overcast
4:31 AM 21.2 °F 10.9 °F 15.8 °F 80% 30.25 in 10.0 mi North 9.2 mph - N/A   Overcast
4:51 AM 21.2 °F 10.1 °F 15.8 °F 80% 30.26 in 10.0 mi North 10.4 mph - N/A   Overcast
5:10 AM 21.2 °F 10.9 °F 15.8 °F 80% 30.27 in 10.0 mi NNE 9.2 mph - N/A   Overcast
5:31 AM 21.2 °F 10.9 °F 15.8 °F 80% 30.27 in 10.0 mi NNE 9.2 mph - N/A   Overcast
5:50 AM 21.2 °F 10.9 °F 15.8 °F 80% 30.27 in 10.0 mi NNE 9.2 mph - N/A   Overcast
6:11 AM 21.2 °F 12.6 °F 15.8 °F 80% 30.28 in 10.0 mi NNE 6.9 mph - N/A   Overcast
6:31 AM 21.2 °F 10.9 °F 15.8 °F 80% 30.29 in 10.0 mi North 9.2 mph - N/A   Overcast
6:50 AM 21.2 °F 10.9 °F 15.8 °F 80% 30.29 in 10.0 mi North 9.2 mph - N/A   Overcast
7:11 AM 21.2 °F 11.7 °F 17.6 °F 86% 30.30 in 10.0 mi NNE 8.1 mph - N/A   Overcast
7:31 AM 21.2 °F 11.7 °F 15.8 °F 80% 30.30 in 10.0 mi NNE 8.1 mph - N/A   Overcast
7:50 AM 21.2 °F 11.7 °F 17.6 °F 86% 30.31 in 10.0 mi NNE 8.1 mph - N/A   Overcast
8:11 AM 21.2 °F 12.6 °F 17.6 °F 86% 30.32 in 10.0 mi NNE 6.9 mph - N/A   Overcast
8:31 AM 21.2 °F 11.7 °F 17.6 °F 86% 30.32 in 10.0 mi North 8.1 mph - N/A   Overcast
8:51 AM 21.2 °F 12.6 °F 17.6 °F 86% 30.33 in 10.0 mi North 6.9 mph - N/A   Overcast
9:11 AM 23.0 °F 17.0 °F 17.6 °F 80% 30.33 in 10.0 mi North 4.6 mph - N/A   Overcast
9:31 AM 23.0 °F 13.9 °F 17.6 °F 80% 30.33 in 10.0 mi NNE 8.1 mph - N/A   Overcast
9:50 AM 23.0 °F 13.9 °F 17.6 °F 80% 30.33 in 10.0 mi North 8.1 mph - N/A   Overcast
10:11 AM 23.0 °F 13.9 °F 17.6 °F 80% 30.33 in 10.0 mi North 8.1 mph - N/A   Overcast
10:31 AM 24.8 °F 15.3 °F 17.6 °F 74% 30.34 in 10.0 mi North 9.2 mph - N/A   Overcast
10:51 AM 26.6 °F 17.5 °F 19.4 °F 74% 30.34 in 10.0 mi North 9.2 mph - N/A   Overcast
11:11 AM 26.6 °F 19.1 °F 19.4 °F 74% 30.34 in 10.0 mi NNE 6.9 mph - N/A   Overcast
11:30 AM 26.6 °F 17.5 °F 17.6 °F 69% 30.34 in 10.0 mi NNE 9.2 mph - N/A   Overcast
11:51 AM 26.6 °F 18.2 °F 17.6 °F 69% 30.34 in 10.0 mi NNE 8.1 mph - N/A   Overcast
12:11 PM 26.6 °F 17.5 °F 17.6 °F 69% 30.34 in 10.0 mi North 9.2 mph - N/A   Overcast
12:30 PM 26.6 °F 17.5 °F 17.6 °F 69% 30.34 in 10.0 mi North 9.2 mph - N/A   Overcast
12:51 PM 26.6 °F 16.8 °F 17.6 °F 69% 30.34 in 10.0 mi NNE 10.4 mph - N/A   Overcast
1:11 PM 26.6 °F 16.8 °F 17.6 °F 69% 30.34 in 10.0 mi NE 10.4 mph - N/A   Overcast
1:30 PM 26.6 °F 17.5 °F 17.6 °F 69% 30.33 in 10.0 mi NNE 9.2 mph - N/A   Overcast
1:51 PM 26.6 °F 18.2 °F 17.6 °F 69% 30.33 in 10.0 mi North 8.1 mph - N/A   Overcast
2:11 PM 26.6 °F 18.2 °F 17.6 °F 69% 30.33 in 10.0 mi North 8.1 mph - N/A   Overcast
2:31 PM 26.6 °F 18.2 °F 17.6 °F 69% 30.32 in 10.0 mi North 8.1 mph - N/A   Overcast
3:11 PM 26.6 °F 18.2 °F 17.6 °F 69% 30.33 in 10.0 mi North 8.1 mph - N/A   Overcast
3:30 PM 26.6 °F 18.2 °F 17.6 °F 69% 30.33 in 10.0 mi North 8.1 mph - N/A   Overcast
4:11 PM 24.8 °F 16.9 °F 17.6 °F 74% 30.33 in 10.0 mi North 6.9 mph - N/A   Scattered Clouds
4:30 PM 24.8 °F 16.1 °F 17.6 °F 74% 30.33 in 10.0 mi North 8.1 mph - N/A   Scattered Clouds
4:51 PM 23.0 °F 15.8 °F 17.6 °F 80% 30.33 in 10.0 mi North 5.8 mph - N/A   Clear
5:10 PM 23.0 °F 17.0 °F 15.8 °F 74% 30.33 in 10.0 mi North 4.6 mph - N/A   Clear
5:31 PM 23.0 °F 18.4 °F 15.8 °F 74% 30.34 in 10.0 mi NNW 3.5 mph - N/A   Clear
5:51 PM 21.2 °F 14.9 °F 14.0 °F 74% 30.34 in 10.0 mi NW 4.6 mph - N/A   Clear
6:10 PM 21.2 °F 16.4 °F 14.0 °F 74% 30.34 in 10.0 mi NNW 3.5 mph - N/A   Clear
6:31 PM 19.4 °F 12.8 °F 14.0 °F 80% 30.35 in 10.0 mi NW 4.6 mph - N/A   Clear
6:51 PM 17.6 °F 10.7 °F 12.2 °F 79% 30.36 in 10.0 mi NW 4.6 mph - N/A   Clear
7:10 PM 17.6 °F 8.2 °F 12.2 °F 79% 30.36 in 10.0 mi WNW 6.9 mph - N/A   Clear
7:31 PM 17.6 °F 9.3 °F 12.2 °F 79% 30.35 in 10.0 mi NW 5.8 mph - N/A   Clear
7:51 PM 15.8 °F 6.1 °F 12.2 °F 86% 30.35 in 10.0 mi NW 6.9 mph - N/A   Clear
8:11 PM 14.0 °F 2.9 °F 12.2 °F 93% 30.35 in 10.0 mi NW 8.1 mph - N/A   Clear
8:31 PM 12.2 °F 1.7 °F 10.4 °F 92% 30.35 in 10.0 mi NW 6.9 mph - N/A   Clear
8:51 PM 12.2 °F 2.9 °F 10.4 °F 92% 30.35 in 10.0 mi NW 5.8 mph - N/A   Clear
9:11 PM 12.2 °F 1.7 °F 8.6 °F 85% 30.35 in 10.0 mi NW 6.9 mph - N/A   Clear
9:30 PM 10.4 °F -0.4 °F 8.6 °F 92% 30.35 in 10.0 mi NW 6.9 mph - N/A   Clear
9:51 PM 10.4 °F 0.8 °F 8.6 °F 92% 30.35 in 10.0 mi NW 5.8 mph - N/A   Clear
10:11 PM 10.4 °F 0.8 °F 6.8 °F 85% 30.34 in 10.0 mi NW 5.8 mph - N/A   Clear
10:31 PM 10.4 °F 0.8 °F 6.8 °F 85% 30.35 in 10.0 mi NW 5.8 mph - N/A   Clear
10:51 PM 10.4 °F 0.8 °F 6.8 °F 85% 30.35 in 10.0 mi NW 5.8 mph - N/A   Clear
11:10 PM 10.4 °F 4.0 °F 6.8 °F 85% 30.34 in 10.0 mi NNW 3.5 mph - N/A   Clear
11:31 PM 8.6 °F 2.0 °F 3.2 °F 79% 30.35 in 10.0 mi NW 3.5 mph - N/A   Clear
11:51 PM 10.4 °F - 5.0 °F 79% 30.33 in 10.0 mi Calm Calm - N/A   Clear